AO-07 1 07530U 74089B 19282.86314937 -.00000024 00000-0 12856-3 0 9998 2 07530 101.7591 249.4198 0012336 127.2959 287.7712 12.53640260 54707 UO-11 1 14781U 84021B 19283.65331945 .00000079 00000-0 15815-4 0 9995 2 14781 97.6056 302.9461 0007305 312.4158 47.6437 14.83111191915657 LO-19 1 20442U 90005G 19282.85860730 n.00000007 n00000-0 n19020-4 0 9998 2 20442 098.6575 224.7133 0011818 170.5734 189.5674 14.32934594552525 HUBBLE 1 20580U 90037B 19283.16705160 .00000415 00000-0 14324-4 0 9991 2 20580 28.4686 181.5600 0002512 264.6683 230.6798 15.09278486418050 MET-2/21 1 22782U 93055A 19283.06415409 .00000029 00000-0 12933-4 0 9998 2 22782 82.5476 73.0931 0021581 217.7773 280.1595 13.83820852318540 AO-27 1 22825U 93061C 19282.98558594 -.00000007 00000-0 15290-4 0 9992 2 22825 98.9127 274.2568 0009020 35.1028 325.0746 14.30068051358147 IO-26 1 22826U 93061D 19282.89089458 n.00000002 n00000-0 n18482-4 0 9991 2 22826 098.9068 274.1371 0009370 024.3759 335.7864 14.30402162358089 FO-29 1 24278U 96046B 19283.34954757 -.00000025 00000-0 13261-4 0 9990 2 24278 98.5548 61.4256 0349446 305.4626 51.4360 13.53093634143176 NOAA-15 1 25338U 98030A 19283.51213041 .00000034 00000-0 33126-4 0 9997 2 25338 98.7416 304.5438 0009355 272.4083 87.6025 14.25934124113461 GO-32 1 25397U 98043D 19283.75553501 -.00000020 00000-0 10531-4 0 9991 2 25397 98.6967 222.5561 0002364 75.6799 284.4641 14.23671887104106 ISS 1 25544U 98067A 19283.87997685 .00001306 00000-0 30722-4 0 9990 2 25544 51.6442 147.5699 0007547 135.4142 41.6648 15.50188051193206 NO-44 1 26931U 01043C 19282.90127447 -.00000024 n00000-0 n22591-4 0 9995 2 26931 067.0509 071.5409 0007438 268.8460 091.1789 14.30554631941092 SO-50 1 27607U 02058C 19283.67855117 .00000011 00000-0 22309-4 0 9992 2 27607 64.5554 61.0917 0075369 234.3575 125.0493 14.75577616903854 CO-55 1 27844U 03031E 19282.99307635 .00000052 00000-0 43014-4 0 9999 2 27844 98.6857 289.5179 0010854 66.0810 294.1503 14.22198328844392 CO-57 1 27848U 03031J 19283.01754304 .00000044 00000-0 39814-4 0 9990 2 27848 98.6931 290.0652 0010830 76.6276 283.6108 14.21790953844248 RS-22 1 27939U 03042A 19283.76532141 .00000130 00000-0 31904-4 0 9996 2 27939 98.0565 57.4650 0014128 69.5056 290.7670 14.66808798857265 NOAA-18 1 28654U 05018A 19283.54431495 .00000066 00000-0 60835-4 0 9995 2 28654 99.0837 332.1518 0013836 214.2634 145.7646 14.12457538741587 CO-58 1 28895U 05043F 19282.92060130 n.00000126 n00000-0 n33104-4 0 9991 2 28895 097.9756 061.8782 0016630 358.9971 001.1195 14.63697682743819 Falconsat-3 1 30776U 07006E 19282.88695518 n.00002433 n00000-0 n67926-4 0 9994 2 30776 035.4348 088.0523 0001996 035.1805 324.9054 15.36589005698108 CO-65 1 32785U 08021C 19283.37304667 .00000178 00000-0 24847-4 0 9990 2 32785 97.5561 277.7612 0011631 243.1831 116.8198 14.88354665620592 AAUSAT2 1 32788U 08021F 19283.58442889 .00000840 00000-0 82121-4 0 9990 2 32788 97.4959 294.2726 0011977 170.3748 189.7705 14.94816760621934 DO-64 1 32789U 08021G 19283.09010722 .00001300 00000-0 90337-4 0 9994 2 32789 97.4532 329.2760 0013747 97.5056 262.7734 15.07158592624044 CO-66 1 32791U 08021J 19282.99830661 .00000229 00000-0 28561-4 0 9996 2 32791 97.5318 283.4801 0012348 215.1116 144.9290 14.90882837620993 RS-30 1 32953U 08025A 19283.93163254 .00000020 00000-0 75656-4 0 9998 2 32953 82.4996 73.7101 0018890 240.6145 119.3039 12.43091561516504 PRISM 1 33493U 09002B 19283.78336222 .00000165 00000-0 20007-4 0 9994 2 33493 98.1213 209.0660 0015153 161.2930 198.8851 14.96753852582216 NOAA-19 1 33591U 09005A 19283.53231631 -.00000003 00000-0 23577-4 0 9994 2 33591 99.1883 277.4533 0014847 61.2760 298.9900 14.12379217549987 TISAT-1 1 36799U 10035E 19283.42360983 .00000191 00000-0 25308-4 0 9994 2 36799 98.1703 79.4545 0013551 75.1326 285.1391 14.91172217501715 JUGNU 1 37839U 11058B 19282.62650192 .00000321 00000-0 29199-4 0 9998 2 37839 19.9626 9.9219 0018960 131.5185 10.6056 14.12660846413243 SRMSAT 1 37841U 11058D 19283.75658163 .00000293 00000-0 15875-4 0 9996 2 37841 19.9728 62.2012 0011957 10.1351 127.9507 14.10640705412813 AO-71 1 37854U 11061E 19282.79822211 .00001079 00000-0 62439-4 0 9995 2 37854 101.7033 239.1781 0160310 89.7680 272.1900 15.06618933434020 HRBE 1 37855U 11061F 19282.84513930 .00001027 00000-0 58863-4 0 9996 2 37855 101.7153 236.5329 0173022 101.2590 260.8121 15.05626258433809 ALMASAT-1 1 38078U 12006B 19283.58780494 .00046395 46577-5 22045-3 0 9990 2 38078 69.4204 298.9185 0132612 83.4237 53.9884 15.71116038415322 HORYU-2 1 38340U 12025D 19283.75647361 .00000166 00000-0 32186-4 0 9997 2 38340 98.3185 325.7061 0012680 118.5242 241.7245 14.75757484397981 RS-40 1 38735U 12041C 19283.15679083 .00000006 00000-0 -25182-4 0 9995 2 38735 82.4774 157.3627 0017468 350.7274 9.3488 12.42579064326648 BEESAT-3 1 39135U 13015F 19283.68470469 .00000967 00000-0 57086-4 0 9990 2 39135 64.8696 30.9807 0036111 292.9116 66.8200 15.17643763357540 BEESAT-2 1 39136U 13015G 19282.71041543 .00000790 00000-0 49427-4 0 9995 2 39136 64.8702 38.2719 0027781 298.5716 61.2614 15.17059122357316 ZACUBE-1 1 39417U 13066B 19283.60670319 .00000227 00000-0 34757-4 0 9996 2 39417 97.5628 290.7070 0059488 21.9148 338.4590 14.81158404317905 TRITON-1 1 39427U 13066M 19283.49975393 .00000169 00000-0 34712-4 0 9990 2 39427 97.6904 253.9275 0114171 160.4157 200.1489 14.67887462315033 GOMX-1 1 39430U 13066Q 19283.78899655 .00000171 00000-0 40381-4 0 9994 2 39430 97.7582 232.8931 0149876 254.5227 103.9380 14.59294505313240 LO-74 1 39440U 13066AA 19282.90602707 n.00000207 n00000-0 n35491-4 0 9994 2 39440 097.6096 274.6989 0081702 077.4230 283.6103 14.75894909315474 AO-73 1 39444U 13066AE 19283.00393311 .00000263 00000-0 38623-4 0 9990 2 39444 97.5600 292.1903 0058491 17.3308 342.9885 14.81985781316717 SPROUT 1 39770U 14029E 19283.79412253 .00000577 00000-0 69775-4 0 9995 2 39770 97.8883 26.3800 0010096 72.8561 287.3777 14.87450841291796 DUCHIFAT-1 1 40021U 14033M 19283.79190275 .00000402 00000-0 46817-4 0 9997 2 40021 97.9244 208.7651 0013952 38.6575 321.5639 14.90700312288540 NANOSATCBR1 1 40024U 14033Q 19283.74482989 .00000374 00000-0 44739-4 0 9990 2 40024 97.9126 205.8430 0013265 42.4843 317.7398 14.89903858288427 EO-79 1 40025U 14033R 19283.74195429 .00000266 00000-0 34296-4 0 9998 2 40025 97.9036 203.2290 0013559 48.4142 311.8234 14.88994808288291 DTUSAT-2 1 40030U 14033W 19283.76936878 .00000234 00000-0 31121-4 0 9996 2 40030 97.8946 201.2201 0013020 44.6986 315.5278 14.88582630288221 EO-80 1 40032U 14033Y 19283.77926719 .00000269 00000-0 34937-4 0 9998 2 40032 97.8952 201.2311 0012956 45.2510 314.9758 14.88527286288210 ANTELSAT 1 40034U 14033AA 19282.85875008 .00000190 00000-0 35332-4 0 9995 2 40034 97.7440 145.1378 0060104 91.1451 269.6645 14.74143092285340 VELOX-1 1 40057U 14034E 19283.70707343 .00000245 00000-0 41806-4 0 9996 2 40057 98.2488 49.3452 0010188 224.0777 135.9624 14.77720459284607 DAURIA DX 1 1 40071U 14037C 19283.71364221 .00000085 00000-0 18389-4 0 9992 2 40071 98.4412 83.5176 0007730 214.0325 146.0393 14.81296739284130 UKUBE-1 1 40074U 14037F 19283.70897031 .00000218 00000-0 33323-4 0 9997 2 40074 98.4488 92.2253 0003900 189.6496 170.4671 14.84108535284566 HODOYOSHI-1 1 40299U 14070B 19283.74536161 .00000480 00000-0 23038-4 0 9994 2 40299 97.3421 1.0968 0013104 8.6049 108.6231 15.23467910273632 CHUBUSAT-1 1 40300U 14070C 19283.78899176 .00000604 00000-0 29161-4 0 9990 2 40300 97.3174 355.0379 0020730 18.5059 98.8836 15.22197809273370 QSAT-EOS 1 40301U 14070D 19283.73868750 .00001369 00000-0 55310-4 0 9994 2 40301 97.3194 358.6502 0025510 359.7958 118.7296 15.26190489273686 FIREBIRD FU3 1 40377U 15003B 19282.92645905 n.00002032 n00000-0 n82535-4 0 9996 2 40377 099.1201 286.4209 0127331 073.3894 288.1273 15.19101300259106 FIREBIRD FU4 1 40378U 15003C 19283.76930542 .00002556 00000-0 10251-3 0 9990 2 40378 99.1203 287.5202 0127529 70.4870 291.0082 15.19116431259242 GRIFEX 1 40379U 15003D 19283.81415857 .00001494 00000-0 66714-4 0 9990 2 40379 99.1220 280.9386 0135778 90.5087 271.1700 15.15709654258875 NO-84 1 40654U 15025D 19283.30541112 n.00010852 n00000n0 n14926-3 0 7451 2 40654 54.9910 13.9106 0128597 257.8659 100.7975 15.48780673130049 NO-83 1 40655U 15025E 19283.45130373 n.00226976 n31612-4 n48772-3 0 9307 2 40655 54.9583 227.6226 0028956 356.0807 4.0285 15.97325736131778 DEORBITSAIL 1 40719U 15032E 19283.28381205 .00000333 00000-0 54636-4 0 9991 2 40719 97.8933 172.7175 0015387 303.1499 56.8234 14.76808535229025 NUDT-PHONESAT 1 40900U 15049B 19283.70690483 .00001743 00000-0 76725-4 0 9998 2 40900 97.4384 291.9451 0013771 139.3073 311.8242 15.23117657225015 XW-2A 1 40903U 15049E 19283.79108956 .00001874 00000-0 45590-4 0 9990 2 40903 97.3269 327.1446 0015298 92.4602 327.8148 15.42170809227831 XW-2C 1 40906U 15049H 19283.74515502 .00000553 00000-0 32405-4 0 9991 2 40906 97.4721 283.9618 0015069 157.9966 288.9082 15.15775169224273 XW-2D 1 40907U 15049J 19283.84651714 .00000444 00000-0 26560-4 0 9993 2 40907 97.4697 283.7421 0014670 155.0408 325.1970 15.15971165224301 LILACSAT-2 1 40908U 15049K 19283.74701723 .00000286 00000-0 19390-4 0 9996 2 40908 97.4836 282.3447 0015994 163.2091 283.3358 15.13861808224067 XW-2E 1 40909U 15049L 19283.75721520 .00000771 00000-0 41218-4 0 9998 2 40909 97.4629 286.6781 0014294 149.1422 297.4187 15.17942926224497 XW-2F 1 40910U 15049M 19283.83137939 .00000735 00000-0 39988-4 0 9995 2 40910 97.4666 285.9011 0015500 147.5856 334.4268 15.17455510224324 XW-2B 1 40911U 15049N 19283.81916990 .00000612 00000-0 35340-4 0 9998 2 40911 97.4719 284.3841 0014516 155.4761 328.5196 15.15900413224191 DCBB 1 40912U 15049P 19283.82052174 .00001008 00000-0 50174-4 0 9997 2 40912 97.4518 289.7116 0016071 129.8095 355.0715 15.19788124224645 TW-1C 1 40926U 15051B 19283.75296870 .00012839 00000-0 17344-3 0 9995 2 40926 97.1237 329.8528 0005998 317.3168 137.3030 15.57873117227901 TW-1A 1 40928U 15051D 19283.84849714 .00002654 00000-0 65535-4 0 9998 2 40928 97.1377 312.6077 0011802 26.8886 92.8618 15.41317475226759 IO-86 1 40931U 15052B 19281.80817167 .00001348 00000-0 98719-4 0 9993 2 40931 6.0099 337.0048 0013942 298.9597 60.9124 14.76623211217865 LQSat 1 40958U 15057A 19282.79614176 -.00000007 00000-0 65680-5 0 9995 2 40958 97.8882 348.8750 0017033 235.7658 124.1937 14.73091020215456 AO-85 1 40967U 15058D 19283.28631554 n.00000014 n00000n0 n20522-4 0 8293 2 40967 64.7776 173.4346 0186579 165.6926 194.9574 14.75999891124507 ATHENOXAT-1 1 41168U 15077C 19283.77059269 .00001977 00000-0 69071-4 0 9999 2 41168 14.9884 99.9318 0011531 241.0027 118.9138 15.13822773211297 ChubuSat-2 1 41338U 16012B 19283.73635847 .00000345 00000-0 20075-4 0 9995 2 41338 31.0023 139.9835 0013734 153.6172 206.5165 15.00190533200050 ChubuSat-3 1 41339U 16012C 19283.75912419 .00000293 00000-0 15980-4 0 9992 2 41339 31.0098 137.7885 0013478 161.6101 198.5028 15.00362830200059 Horyu-4 1 41340U 16012D 19283.73033230 .00000497 00000-0 30943-4 0 9999 2 41340 31.0042 128.2710 0014004 181.4527 178.6069 15.01328445200161 OUFTI-1 1 41458U 16025C 19282.81215295 .00001201 00000-0 64950-4 0 9993 2 41458 98.1004 15.4084 0165180 337.1264 22.2662 15.06067901189592 e-st@r-II 1 41459U 16025D 19283.85287702 .00001037 00000-0 57170-4 0 9994 2 41459 98.1000 16.0981 0166116 335.0832 24.2437 15.05696438189729 AAUSAT4 1 41460U 16025E 19283.81586350 .00000847 00000-0 46491-4 0 9995 2 41460 98.0937 17.5940 0156328 326.7524 32.3950 15.07668614189861 LO-87 1 41557U 16033B 19283.78147017 .00001285 00000-0 50555-4 0 9993 2 41557 97.4151 10.6134 0012189 252.5319 107.4588 15.27428923187501 NuSat2 1 41558U 16033C 19283.80450471 .00001318 00000-0 48921-4 0 9999 2 41558 97.4183 12.0559 0011234 252.0213 107.9803 15.29342957187578 Lapan A3 1 41603U 16040E 19283.75951418 .00000149 00000-0 10079-4 0 9993 2 41603 97.3486 339.5799 0013788 7.5222 125.6144 15.19750190183062 Swayam 1 41607U 16040J 19282.84051453 n.00001275 n00000-0 n56198-4 0 9999 2 41607 097.3541 342.7217 0013189 000.8973 359.2286 15.23537767183108 Pratham 1 41783U 16059A 19283.13241758 .00000027 00000-0 14383-4 0 9990 2 41783 98.0554 340.1369 0034128 29.4332 330.8782 14.63012727162130 AlSat 1N 1 41789U 16059G 19283.84421110 .00000040 00000-0 16545-4 0 9993 2 41789 98.0579 343.0780 0028650 16.6011 343.6108 14.64266197162358 ScatSat 1 41790U 16059H 19283.71652018 -.00000005 00000-0 95806-5 0 9994 2 41790 98.1982 325.9844 0005391 345.1230 14.9804 14.50889638160860 TY-1 1 41844U 16066D 19283.72281435 .00000720 00000-0 32182-4 0 9994 2 41844 97.4070 289.7614 0015901 141.7811 306.2363 15.24425375162062 Pegasus-1 1 41846U 16066F 19282.63128800 .00000206 00000-0 42796-4 0 9992 2 41846 98.7005 324.5681 0366254 262.5912 93.3525 14.37625460152784 CAS-2T 1 41847U 16066G 19283.72156175 .00000042 00000-0 17734-4 0 9992 2 41847 98.6941 326.1998 0364786 255.6076 100.4369 14.38009978153388 EO-88 1 42017U 17008BX 19282.77228248 .00001360 00000-0 56052-4 0 9994 2 42017 97.3926 348.6504 0007659 123.3798 236.8174 15.25773447147167 nSIGHT1 1 42726U 98067MF 19283.65838116 .00045802 00000-0 28966-3 0 9995 2 42726 51.6325 84.0144 0004640 256.7946 103.2536 15.76096341135763 CAS-4B 1 42759U 17034B 19283.85137731 .00000016 00000-0 14474-4 0 9991 2 42759 43.0196 323.7586 0012207 255.3573 82.2243 15.09648900128080 CAS-4A 1 42761U 17034D 19283.87642361 .00000203 00000-0 25836-4 0 9998 2 42761 43.0203 323.0853 0012729 255.8452 90.4815 15.09727917128084 UCLSat 1 42765U 17036A 19282.82037864 .00001105 00000-0 49967-4 0 9997 2 42765 97.3392 338.3481 0011278 183.7395 176.3760 15.22936092127687 NIUSat 1 42766U 17036B 19282.71313254 .00000874 00000-0 42069-4 0 9994 2 42766 97.3387 336.3829 0015684 178.0116 182.1185 15.21264117127417 LituanicaSAT 2 1 42768U 17036D 19283.77659466 .00002187 00000-0 95361-4 0 9993 2 42768 97.3435 338.9587 0015305 172.6948 187.4515 15.23120791127679 Aalto 1 1 42775U 17036L 19283.11806130 .00000700 00000-0 34129-4 0 9995 2 42775 97.3372 337.1197 0014062 175.6301 184.5060 15.21467319127457 URSA MAIOR 1 42776U 17036M 19283.13434811 .00000752 00000-0 36285-4 0 9993 2 42776 97.3383 337.3213 0013897 175.3989 184.7377 15.21611727127463 Max Valier Sat 1 42778U 17036P 19283.13004065 .00000834 00000-0 39279-4 0 9996 2 42778 97.3425 338.2312 0012431 178.3196 181.8085 15.22171621127490 Pegasus 1 42784U 17036V 19283.71793276 .00001120 00000-0 51002-4 0 9993 2 42784 97.3393 339.0081 0011931 181.5892 178.5309 15.22677989127610 NUDATSat 1 42787U 17036Y 19283.11569361 .00001506 00000-0 65540-4 0 9996 2 42787 97.3431 339.2941 0009950 186.4740 173.6371 15.23724381127410 SUCHAI 1 1 42788U 17036Z 19282.70749328 .00001231 00000-0 55051-4 0 9995 2 42788 97.3401 338.3993 0011432 183.8439 176.2712 15.23123297127551 SKCUBE 1 42789U 17036AA 19282.73110474 n.00001105 n00000-0 n49879-4 0 9994 2 42789 097.3396 338.3419 0011298 183.8419 176.2733 15.23008956127474 VZLUSAT 1 1 42790U 17036AB 19282.70882475 n.00001490 n00000-0 n64882-4 0 9998 2 42790 097.3414 338.8953 0010916 182.3136 177.8052 15.23717970127509 VENTA 1 1 42791U 17036AC 19282.70439758 n.00001054 n00000-0 n47680-4 0 9994 2 42791 097.3394 338.3664 0010941 184.1456 175.9693 15.23015523127464 Robusta 1B 1 42792U 17036AD 19282.84640441 n.00001159 n00000-0 n51920-4 0 9991 2 42792 097.3397 338.6317 0010871 183.7021 176.4137 15.23186067127518 D-SAT 1 42794U 17036AF 19283.08183836 .00000202 00000-0 22644-4 0 9999 2 42794 97.5281 322.7276 0127821 123.3278 238.0257 14.91144157125233 TechnoSat 1 42829U 17042E 19283.76803868 .00000258 00000-0 31427-4 0 9994 2 42829 97.5478 171.8106 0015351 44.5263 315.7186 14.91006819121936 TOMSK-TPU 120 1 42910U 98067MZ 19283.78623346 .00491571 13417-3 50153-3 0 9991 2 42910 51.6273 47.6940 0006120 320.6239 190.3606 16.10180820123206 TNS 0-2 1 42914U 98067ND 19283.61612139 .01325552 11827-4 72575-3 0 9997 2 42914 51.6229 47.6977 0010269 324.1696 35.8632 16.18760651123189 QIKCOM-1 1 42983U 98067NF 19283.79312161 .00003942 00000-0 55037-4 0 9991 2 42983 51.6386 127.1403 0004099 185.5458 174.5490 15.59517563111148 AO-91 1 43017U 17073E 19283.35696703 .00000309 00000-0 29340-4 0 9999 2 43017 97.7205 200.2670 0258617 148.0013 213.7203 14.78644981102058 EcAMSat 1 43019U 98067NG 19283.76354176 .00008256 00000-0 97066-4 0 9992 2 43019 51.6396 120.2463 0004719 170.8005 189.3077 15.62405624193552 PICSAT 1 43132U 18004X 19283.25260529 .00001189 00000-0 52380-4 0 9991 2 43132 97.4782 350.7976 0008927 207.5911 152.4854 15.23785471 96793 AO-92 1 43137U 18004AC 19283.12243382 .00000896 00000-0 40396-4 0 9998 2 43137 97.4772 350.6159 0008414 209.7359 150.3401 15.23629879 96761 TianYi 2 1 43155U 18008A 19283.77064139 .00000282 00000-0 20548-4 0 9990 2 43155 97.4764 353.8639 0016184 293.7455 181.3825 15.11264183 95058 Zhou Enlai 1 43156U 18008B 19283.79038582 .00000522 00000-0 35252-4 0 9991 2 43156 97.4819 353.7639 0013332 292.3456 192.0755 15.10778230 95027 TianYi 6 1 43158U 18008D 19283.80327566 .00000830 00000-0 54362-4 0 9993 2 43158 97.4770 353.1345 0012613 290.8675 208.7381 15.10358464 94987 S-Net G 1 43186U 18014G 19283.28204184 .00000387 00000-0 38949-4 0 9993 2 43186 97.7004 190.0336 0010726 353.2519 6.8556 14.96684545 92123 S-Net H 1 43187U 18014H 19283.74985014 .00000442 00000-0 43813-4 0 9991 2 43187 97.7002 190.4796 0010670 351.7284 8.3760 14.96685203 92199 S-Net J 1 43188U 18014J 19283.74967183 .00000436 00000-0 43214-4 0 9997 2 43188 97.7005 190.4999 0010688 351.8407 8.2639 14.96684824 92197 S-Net K 1 43189U 18014K 19282.81403657 .00000341 00000-0 34940-4 0 9997 2 43189 97.7000 189.5551 0010747 354.6757 5.4348 14.96683650 90607 FMN 1 1 43192U 18015A 19283.83407674 .00001916 00000-0 80455-4 0 9999 2 43192 97.4134 50.2531 0014792 250.5047 232.6593 15.24598763 93700 Shaonian Xing 1 43199U 18015H 19283.74099450 .00001400 00000-0 58814-4 0 9997 2 43199 97.3919 49.0438 0015557 262.5210 205.3795 15.25027233 93749 1KUNS-PF 1 43466U 98067NP 19283.80569821 .00037418 00000-0 30245-3 0 9995 2 43466 51.6348 113.6349 0001483 200.6884 159.4053 15.70447541 80826 UBAKUSAT 1 43467U 98067NQ 19283.79756069 .00018157 00000-0 18473-3 0 9994 2 43467 51.6354 121.1044 0002665 149.2438 210.8714 15.65217604 80731 Irazu 1 43468U 98067NR 19283.71873667 .00068581 00000-0 44236-3 0 9993 2 43468 51.6350 107.7389 0001791 218.1117 141.9756 15.75487263180887 EnduroSat One 1 43551U 98067NZ 19282.83430672 .00020089 00000-0 19818-3 0 9992 2 43551 51.6358 128.1722 0005684 207.6718 152.3976 15.65905624 70783 EQUISat 1 43552U 98067PA 19283.81554006 .00017669 00000-0 18785-3 0 9992 2 43552 51.6373 125.7653 0005932 209.5112 150.5549 15.64108293 70863 UiTMSat 1 1 43589U 98067PD 19282.84327903 .00017070 00000-0 17897-3 0 9997 2 43589 51.6346 131.1892 0005309 212.3957 147.6713 15.64496524 66442 Maya 1 1 43590U 98067PE 19282.83710264 .00017310 00000-0 18128-3 0 9999 2 43590 51.6348 131.1541 0005510 212.0987 147.9673 15.64511696 66379 Bhutan 1 1 43591U 98067PF 19282.82352412 .00017193 00000-0 17966-3 0 9994 2 43591 51.6359 131.0964 0005561 213.3951 146.6694 15.64573796 66379 SiriusSat 1 1 43595U 98067PG 19283.12934127 .00016751 00000-0 18207-3 0 9999 2 43595 51.6349 131.6072 0003871 173.6518 186.4526 15.63596550 65576 SiriusSat 2 1 43596U 98067PH 19282.85189837 .00015586 00000-0 17101-3 0 9996 2 43596 51.6359 133.5519 0004371 173.4273 186.6780 15.63417807 65523 Tanusha-3 1 43597U 98067PJ 19283.73639926 .00027122 00000-0 26645-3 0 9996 2 43597 51.6339 125.8744 0003843 192.2143 167.8760 15.65819006 65702 SurfSat 1 43614U 18070B 19283.61222918 .00003210 00000-0 86016-4 0 9999 2 43614 93.0336 50.7123 0014000 218.6860 141.3392 15.37967324 59912 CP-7 DAVE 1 43615U 18070C 19283.36423222 .00002936 00000-0 78943-4 0 9997 2 43615 93.0338 50.6085 0014106 219.2922 140.7309 15.37867863 59877 ELFIN-B 1 43616U 18070D 19282.86520930 n.00003825 n00000-0 n10014-3 0 9998 2 43616 093.0298 050.3088 0014712 225.4577 134.5477 15.38665636059817 ELFIN-A 1 43617U 18070E 19283.37552821 .00004401 00000-0 11492-3 0 9992 2 43617 93.0353 50.8237 0014109 219.4447 140.5781 15.38745165 59899 STARS-Me Mother 1 43640U 98067PQ 19283.06132833 .00008594 00000-0 10997-3 0 9991 2 43640 51.6363 137.9442 0005703 158.8750 201.2479 15.60101402 57414 CubeBel 1 1 43666U 18083E 19283.75039622 .00000753 00000-0 40585-4 0 9993 2 43666 97.5147 307.4253 0015730 147.4913 304.3093 15.17752930 52581 Changshagaoxin 1 43669U 18083H 19283.77649972 .00000740 00000-0 40887-4 0 9994 2 43669 97.5007 306.4100 0012038 138.7164 221.4982 15.16917601 52525 Ten-Koh 1 43677U 18084G 19282.89971400 .00000030 00000-0 89290-5 0 9994 2 43677 97.8621 35.9607 0014609 268.1700 91.7844 14.90199613 51479 PO-101 1 43678U 18084H 19283.71735018 -.00000139 00000-0 -81421-5 0 9990 2 43678 97.8616 37.5426 0008829 289.9477 70.0785 14.91574964 51640 IRVINE 01 1 43693U 18088D 19283.39155420 .00002230 00000-0 96150-4 0 9994 2 43693 85.0348 243.0029 0020114 129.5825 230.7198 15.21750445 50655 QO-100 1 43700U 18090A 19283.79632624 .00000133 00000-0 00000n0 0 9990 2 43700 0.0253 214.1182 0001579 356.2055 121.2845 1.00267924 3437 Reaktor Hello World 1 43743U 18096AA 19283.75796950 .00001062 00000-0 42999-4 0 9992 2 43743 97.4502 353.5842 0016862 295.9301 217.3900 15.26815054 48137 MinXSS-2 1 43758U 18099A 19283.16851931 .00000107 00000-0 14908-4 0 9995 2 43758 97.7362 353.8292 0014458 312.6297 47.3704 14.95477143 46399 AO-95 1 43770U 18099N 19283.76921981 .00000085 00000-0 13118-4 0 9995 2 43770 97.7362 354.1266 0013549 318.0817 41.9365 14.94825413 46463 RANGE-B 1 43772U 18099Q 19283.14707316 .00000790 00000-0 77563-4 0 9990 2 43772 97.7418 353.7627 0012863 306.0631 53.9398 14.94950434 46362 RANGE-A 1 43773U 18099R 19283.75973035 .00000306 00000-0 33393-4 0 9997 2 43773 97.7309 353.9360 0012275 304.6840 55.3223 14.94845967 46458 MOVE-II 1 43780U 18099Y 19283.77997763 .00000053 00000-0 10119-4 0 9991 2 43780 97.7352 354.2134 0012494 315.5916 44.4302 14.95146210 46458 SNUSat 2 1 43782U 18099AA 19283.17397089 -.00000114 00000-0 -51053-5 0 9995 2 43782 97.7358 353.6601 0011600 306.8942 53.1215 14.95103532 46379 SnugLite 1 43784U 18099AC 19283.76003829 .00000405 00000-0 42034-4 0 9997 2 43784 97.7323 354.1370 0013909 312.7748 47.2302 14.95191321 46471 ITASat 1 1 43786U 18099AE 19282.82105717 .00000543 00000-0 54665-4 0 9990 2 43786 97.7377 353.4286 0014031 314.9333 45.0749 14.95186969 46339 EAGLET 1 1 43790U 18099AJ 19282.74280220 .00000611 00000-0 60285-4 0 9990 2 43790 97.7365 353.4939 0012352 320.4417 39.5902 14.95559134 46028 ESEO 1 43792U 18099AL 19283.14288193 .00000433 00000-0 44254-4 0 9994 2 43792 97.7343 353.8168 0012135 316.1002 43.9254 14.95531031 46143 CSIM 1 43793U 18099AM 19282.77866830 -.00000026 00000-0 29008-5 0 9993 2 43793 97.7315 353.3538 0011936 314.4424 45.5819 14.95785975 46060 Astrocast 0.1 1 43798U 18099AS 19283.76620158 .00000046 00000-0 93498-5 0 9994 2 43798 97.7355 354.5596 0011059 296.0266 63.9816 14.95766360 46474 JO-97 1 43803U 18099AX 19283.79930287 .00000373 00000-0 39080-4 0 9990 2 43803 97.7331 354.2807 0013990 311.4761 48.5258 14.95327348 46473 Suomi 100 1 43804U 18099AY 19283.19667474 .00000255 00000-0 28324-4 0 9998 2 43804 97.7329 353.6825 0014110 313.6796 46.3254 14.95323894 46396 Al Farabi 2 1 43805U 18099AZ 19283.78950690 .00000164 00000-0 20092-4 0 9992 2 43805 97.7333 354.2958 0014156 311.7322 48.2687 14.95396994 46482 PWSat 2 1 43814U 18099BJ 19282.83511808 .00016168 00000-0 12262-2 0 9990 2 43814 97.7675 355.7918 0004841 288.5004 71.5659 15.02306372 45826 CHOMPTT 1 43855U 18104G 19283.66965663 .00001107 00000-0 45881-4 0 9998 2 43855 85.0395 341.0890 0015113 255.4601 104.4965 15.22534156 45367 ISAT 1 43879U 18111D 19283.76599729 .00000715 00000-0 68697-4 0 9993 2 43879 97.7094 190.0722 0013592 10.1613 349.9881 14.96053152 40992 UWE-4 1 43880U 18111E 19283.78616584 -.00000125 00000-0 -58929-5 0 9991 2 43880 97.7104 190.2352 0012818 10.3886 349.7598 14.96294026 41004 Sparrow 1 43881U 18111F 19283.71044598 .00000250 00000-0 27232-4 0 9994 2 43881 97.7110 190.1958 0012949 10.0984 350.0495 14.96343742 40992 Lume 1 1 43908U 18111AJ 19283.29410162 .00001081 00000-0 46582-4 0 9993 2 43908 97.2794 185.3959 0020361 314.1654 45.7909 15.24515644 43750 FO-98 1 43933U 19003B 19283.71411302 .00000629 00000-0 30596-4 0 9991 2 43933 97.2694 337.5306 0019195 47.6511 67.5382 15.21757798 40396 FO-99 1 43937U 19003F 19283.71223206 .00001122 00000-0 49117-4 0 9997 2 43937 97.2648 338.1094 0025354 33.2797 93.9246 15.23781809 40441 Delphini 1 1 44030U 98067PW 19283.62884949 .00015571 00000-0 20561-3 0 9990 2 44030 51.6363 140.2451 0004695 202.2353 157.8437 15.58556076 39303 MYSat 1 1 44045U 18092F 19283.18809423 .00001913 00000-0 65862-4 0 9990 2 44045 51.6453 181.1115 0013056 132.8845 227.3233 15.35360702 36673 AstroCast 0.2 1 44083U 19018F 19283.65468342 .00000533 00000-0 26795-4 0 9993 2 44083 97.4569 342.6699 0013181 336.2838 23.7789 15.21473213 29249 AISTechSat 3 1 44103U 19018AB 19283.84210563 .00000655 00000-0 31064-4 0 9997 2 44103 97.4449 342.8932 0013270 353.7818 96.3037 15.22766643 29292 AISat 1 1 44104U 19018AC 19283.75554074 .00000856 00000-0 30139-4 0 9991 2 44104 97.4979 346.4329 0059464 24.0246 336.3748 15.30624039 29454 Raavana-1 1 44329U 98067QE 19283.64436273 .00010145 00000-0 16487-3 0 9990 2 44329 51.6400 147.1207 0007789 144.7579 215.3927 15.53322417 17965 Uguisu 1 44330U 98067QF 19282.87520089 n.00007306 n00000-0 n12112-3 0 9991 2 44330 051.6401 150.9831 0007781 140.4187 219.7372 15.53261975017821 NepaliSat-1 1 44331U 98067QG 19283.64177945 .00010197 00000-0 16549-3 0 9997 2 44331 51.6401 147.1041 0007771 145.2739 214.8760 15.53356219 17955 Prox-1 1 44339U 19036A 19283.28532689 .00000890 00000-0 16279-3 0 9993 2 44339 23.9989 251.9012 0010281 285.7787 74.1590 14.52682275 15566 OBJECT H 1 44346U 19036H 19283.15594930 .00008866 00000-0 13750-3 0 9996 2 44346 28.5226 226.2923 0385611 155.6335 206.3012 14.97666488 16028 OBJECT J 1 44347U 19036J 19283.14846964 .00032104 00000-0 49467-3 0 9999 2 44347 28.5297 224.3389 0368596 158.5657 203.0807 15.01858692 16048 OBJECT K 1 44348U 19036K 19283.85794661 .00007850 00000-0 11921-3 0 9998 2 44348 28.5173 221.2289 0385657 163.5581 197.7942 14.97967133 16130 Armadillo 1 44352U 19036P 19283.09701482 .00010530 00000-0 16353-3 0 9991 2 44352 28.5312 225.8882 0380978 155.8708 206.0245 14.98715273 15962 NO-104 1 44354U 19036R 19282.93964127 n.00008194 n00000-0 n12342-3 0 9999 2 44354 028.5303 226.5197 0383069 154.3971 207.6126 14.98719161015999 NO-103 1 44355U 19036S 19283.10187423 .00014277 00000-0 21720-3 0 9995 2 44355 28.5306 224.9214 0377701 157.0269 204.7699 15.00009829 16015 Oculus-ASR 1 44356U 19036T 19283.87086946 .00033253 00000-0 46634-3 0 9994 2 44356 28.5230 217.4524 0365502 169.1301 191.7560 15.04475424 16160 CP9 1 44360U 19036X 19283.91250752 .00022252 00000-0 30179-3 0 9996 2 44360 28.5157 217.6689 0378034 169.0752 191.8332 15.02534819 16036 Move-IIb 1 44398U 19038N 19283.14389697 .00001037 00000-0 64278-4 0 9991 2 44398 97.5009 243.2347 0023883 273.8830 85.9670 15.11747357 14607 SONATE 1 44400U 19038Q 19282.87815382 .00000375 00000-0 25721-4 0 9993 2 44400 97.5024 242.9842 0023762 272.6768 87.1742 15.11698692 14563 BeeSat 9 1 44412U 19038AC 19283.39863261 .00000760 00000-0 48043-4 0 9993 2 44412 97.5021 243.5127 0021333 277.2049 82.6756 15.11870636 14331 JAISAT-1 1 44419U 19038F 19282.90379851 n.00000861 n00000-0 n53244-4 0 9994 2 44419 097.5021 243.1010 0020177 278.8997 080.9949 15.12360505014570 LightSail-2 1 44420U 19036AC 19283.27734169 .00008842 00000-0 20384-2 0 9996 2 44420 24.0031 251.8760 0013393 242.5015 117.3819 14.53265093 13702 Taurus 1 1 44530U 19059C 19283.78264404 .00000398 00000-0 12619-3 0 9990 2 44530 98.5855 357.3468 0014950 185.6021 174.4999 14.45247924 4139 /EX
